Beatrice, NE

7:02 AM CDT on May 24, 2017 (GMT -0500)
Beatrice Municipal

Weather History for KBIE - September, 2015

Change the Weather History Date:

Monday, September 14, 2015

  Actual Average Record
Temperature  
Mean Temperature 72 °F -  
Max Temperature 83 °F 76 °F 96 °F (1955)
Min Temperature 60 °F 52 °F 41 °F (1961)
Cooling Degree Days 6    
Growing Degree Days 22 (Base 50)    
Moisture  
Dew Point 59 °F    
Average Humidity 66    
Maximum Humidity 85    
Minimum Humidity 49    
Precipitation  
Precipitation 0.00 in - - ()
Sea Level Pressure  
Sea Level Pressure 29.82 in    
Wind  
Wind Speed 12 mph (South)    
Max Wind Speed 21 mph    
Max Gust Speed 29 mph    
Visibility 10 miles    
Events      
Averages and records for this station are not official NWS values.
T = Trace of Precipitation, MM = Missing Value Source: NWS Daily Summary

Daily Weather History Graph

Daily Weather History Graph

Search for Another Location

Airport or City:

Trip Planner

Search our weather history database for the weather conditions in past years. The results will help you decide how hot, cold, wet, or windy it might be!

Date:

Astronomy

Sep. 14, 2015 Rise Set
Actual Time 7:06 AM CDT 7:37 PM CDT
Civil Twilight 6:39 AM CDT 8:05 PM CDT
Nautical Twilight 6:07 AM CDT 8:37 PM CDT
Astronomical Twilight 5:33 AM CDT 9:10 PM CDT
Moon 8:20 AM CDT (9/14) 8:22 PM CDT (9/14)
Length of Visible Light 13h 25m
Length of Day
12h 31m
New Moon, 2% of the Moon is Illuminated
Sep 14
New Moon
Sep 21
First Quarter
Sep 27
Full
Oct 4
Last Quarter
Oct 12
New

Hourly Weather History & Observations

Time (CDT) Temp. Heat Index Dew Point Humidity Pressure Visibility Wind Dir Wind Speed Gust Speed Precip Events Conditions
12:15 AM 65.8 °F - 58.5 °F 77% 29.80 in 10.0 mi SSE 11.5 mph - N/A   Clear
12:35 AM 65.5 °F - 58.3 °F 77% 29.80 in 10.0 mi South 12.7 mph 18.4 mph N/A   Clear
12:55 AM 65.3 °F - 58.3 °F 78% 29.81 in 10.0 mi South 10.4 mph - N/A   Clear
1:15 AM 64.6 °F - 58.1 °F 79% 29.80 in 10.0 mi SSE 10.4 mph - N/A   Clear
1:35 AM 64.4 °F - 58.1 °F 80% 29.78 in 10.0 mi South 12.7 mph 16.1 mph N/A   Clear
1:55 AM 64.6 °F - 58.1 °F 79% 29.78 in 10.0 mi South 15.0 mph 19.6 mph N/A   Clear
2:15 AM 64.9 °F - 57.9 °F 78% 29.80 in 10.0 mi South 12.7 mph 21.9 mph N/A   Clear
2:35 AM 64.6 °F - 57.9 °F 79% 29.79 in 10.0 mi South 11.5 mph - N/A   Clear
2:55 AM 64.4 °F - 57.6 °F 78% 29.78 in 10.0 mi South 10.4 mph - N/A   Clear
3:15 AM 64.4 °F - 57.4 °F 78% 29.78 in 10.0 mi South 11.5 mph - N/A   Clear
3:35 AM 63.9 °F - 57.2 °F 79% 29.78 in 10.0 mi South 9.2 mph - N/A   Clear
3:55 AM 63.5 °F - 57.2 °F 80% 29.78 in 10.0 mi SSE 10.4 mph - N/A   Clear
4:15 AM 63.0 °F - 57.0 °F 81% 29.78 in 10.0 mi SSE 10.4 mph - N/A   Clear
4:35 AM 62.6 °F - 56.8 °F 81% 29.78 in 10.0 mi SSE 6.9 mph - N/A   Clear
4:55 AM 62.2 °F - 56.5 °F 81% 29.78 in 10.0 mi SSE 6.9 mph - N/A   Clear
5:15 AM 61.7 °F - 56.3 °F 82% 29.79 in 10.0 mi South 4.6 mph - N/A   Clear
5:35 AM 61.7 °F - 56.3 °F 82% 29.79 in 10.0 mi SSE 6.9 mph - N/A   Clear
5:55 AM 61.7 °F - 56.1 °F 82% 29.79 in 10.0 mi SSE 5.8 mph - N/A   Clear
6:15 AM 61.3 °F - 55.8 °F 82% 29.78 in 10.0 mi SE 4.6 mph - N/A   Clear
6:35 AM 60.4 °F - 55.8 °F 85% 29.79 in 10.0 mi SSE 5.8 mph - N/A   Clear
6:55 AM 60.3 °F - 55.6 °F 85% 29.79 in 10.0 mi SSE 6.9 mph - N/A   Clear
7:15 AM 60.6 °F - 55.6 °F 83% 29.81 in 10.0 mi SSE 8.1 mph - N/A   Clear
7:35 AM 60.6 °F - 55.6 °F 83% 29.81 in 10.0 mi SSE 8.1 mph - N/A   Clear
7:55 AM 61.3 °F - 55.8 °F 82% 29.82 in 10.0 mi SSE 6.9 mph - N/A   Clear
8:15 AM 62.1 °F - 55.9 °F 80% 29.83 in 10.0 mi South 6.9 mph - N/A   Clear
8:35 AM 63.7 °F - 56.3 °F 77% 29.83 in 10.0 mi South 15.0 mph - N/A   Clear
8:55 AM 65.3 °F - 56.5 °F 73% 29.83 in 10.0 mi South 13.8 mph - N/A   Clear
9:15 AM 66.7 °F - 56.8 °F 70% 29.84 in 10.0 mi South 13.8 mph 19.6 mph N/A   Clear
9:35 AM 68.0 °F - 56.8 °F 67% 29.84 in 10.0 mi South 13.8 mph 20.7 mph N/A   Clear
9:55 AM 69.8 °F - 57.7 °F 65% 29.83 in 10.0 mi South 12.7 mph - N/A   Clear
10:15 AM 71.1 °F - 58.3 °F 64% 29.83 in 10.0 mi South 15.0 mph 18.4 mph N/A   Clear
10:35 AM 71.6 °F - 58.6 °F 64% 29.83 in 10.0 mi South 12.7 mph 16.1 mph N/A   Clear
10:55 AM 73.4 °F - 59.0 °F 61% 29.84 in 10.0 mi South 16.1 mph 20.7 mph N/A   Clear
11:15 AM 74.3 °F - 59.5 °F 60% 29.85 in 10.0 mi South 12.7 mph 23.0 mph N/A   Clear
11:35 AM 75.2 °F - 59.7 °F 58% 29.84 in 10.0 mi South 16.1 mph 20.7 mph N/A   Clear
11:55 AM 76.6 °F - 59.9 °F 56% 29.84 in 10.0 mi South 16.1 mph 20.7 mph N/A   Clear
12:15 PM 78.3 °F - 61.0 °F 55% 29.84 in 10.0 mi South 16.1 mph - N/A   Clear
12:35 PM 78.1 °F - 60.4 °F 54% 29.84 in 10.0 mi South 17.3 mph 21.9 mph N/A   Clear
12:55 PM 78.6 °F - 61.2 °F 55% 29.84 in 10.0 mi SSW 16.1 mph 23.0 mph N/A   Clear
1:15 PM 80.1 °F 81.1 °F 61.5 °F 53% 29.84 in 10.0 mi South 16.1 mph 25.3 mph N/A   Clear
1:35 PM 80.8 °F 82.0 °F 63.0 °F 54% 29.84 in 10.0 mi South 12.7 mph 21.9 mph N/A   Clear
1:55 PM 80.8 °F 82.0 °F 62.8 °F 54% 29.83 in 10.0 mi South 16.1 mph 23.0 mph N/A   Clear
2:15 PM 81.1 °F 82.5 °F 63.5 °F 55% 29.83 in 10.0 mi South 13.8 mph 24.2 mph N/A   Clear
2:35 PM 81.9 °F 83.2 °F 63.7 °F 54% 29.83 in 10.0 mi South 15.0 mph 21.9 mph N/A   Clear
2:55 PM 81.9 °F 83.1 °F 63.1 °F 53% 29.83 in 10.0 mi South 15.0 mph 19.6 mph N/A   Clear
3:15 PM 82.4 °F 83.4 °F 62.6 °F 51% 29.82 in 10.0 mi South 16.1 mph 26.5 mph N/A   Clear
3:35 PM 83.3 °F 84.3 °F 63.0 °F 50% 29.82 in 10.0 mi South 20.7 mph 27.6 mph N/A   Clear
3:55 PM 82.9 °F 83.8 °F 62.8 °F 50% 29.82 in 10.0 mi South 18.4 mph 23.0 mph N/A   Clear
4:15 PM 83.3 °F 84.4 °F 63.3 °F 51% 29.81 in 10.0 mi South 18.4 mph 24.2 mph N/A   Clear
4:35 PM 83.5 °F 84.5 °F 63.0 °F 50% 29.81 in 10.0 mi South 17.3 mph 20.7 mph N/A   Clear
4:55 PM 83.5 °F 84.5 °F 63.3 °F 50% 29.80 in 10.0 mi South 16.1 mph - N/A   Clear
5:15 PM 83.5 °F 84.5 °F 62.8 °F 50% 29.80 in 10.0 mi South 17.3 mph 24.2 mph N/A   Clear
5:35 PM 83.5 °F 84.3 °F 62.6 °F 49% 29.81 in 10.0 mi South 17.3 mph 20.7 mph N/A   Clear
5:55 PM 83.1 °F 83.9 °F 62.4 °F 49% 29.80 in 10.0 mi South 11.5 mph 25.3 mph N/A   Clear
6:15 PM 81.7 °F 82.7 °F 62.6 °F 52% 29.80 in 10.0 mi South 10.4 mph - N/A   Clear
6:35 PM 81.1 °F 82.3 °F 62.8 °F 53% 29.80 in 10.0 mi SSE 10.4 mph - N/A   Clear
6:55 PM 80.1 °F 81.4 °F 62.8 °F 55% 29.80 in 10.0 mi SSE 10.4 mph 16.1 mph N/A   Clear
7:15 PM 80.1 °F 81.5 °F 63.0 °F 56% 29.81 in 10.0 mi SSE 11.5 mph 19.6 mph N/A   Clear
7:35 PM 78.8 °F - 63.0 °F 58% 29.81 in 10.0 mi SSE 13.8 mph 17.3 mph N/A   Clear
7:55 PM 77.9 °F - 62.1 °F 58% 29.81 in 10.0 mi South 15.0 mph - N/A   Clear
8:15 PM 77.0 °F - 61.0 °F 58% 29.82 in 10.0 mi South 18.4 mph 25.3 mph N/A   Clear
8:35 PM 76.1 °F - 60.8 °F 59% 29.82 in 10.0 mi SSE 15.0 mph 21.9 mph N/A   Clear
8:55 PM 75.2 °F - 60.4 °F 60% 29.83 in 10.0 mi South 17.3 mph 28.8 mph N/A   Clear
9:15 PM 74.7 °F - 60.3 °F 61% 29.84 in 10.0 mi SSE 15.0 mph 25.3 mph N/A   Clear
9:35 PM 74.5 °F - 59.9 °F 60% 29.85 in 10.0 mi South 18.4 mph 26.5 mph N/A   Clear
9:55 PM 73.8 °F - 59.5 °F 61% 29.85 in 10.0 mi South 18.4 mph 24.2 mph N/A   Clear
10:15 PM 73.6 °F - 59.4 °F 61% 29.85 in 10.0 mi South 19.6 mph 25.3 mph N/A   Clear
10:35 PM 73.4 °F - 59.4 °F 61% 29.85 in 10.0 mi South 19.6 mph 27.6 mph N/A   Clear
10:55 PM 72.5 °F - 59.4 °F 63% 29.86 in 10.0 mi South 19.6 mph 27.6 mph N/A   Clear
11:15 PM 72.1 °F - 59.0 °F 63% 29.86 in 10.0 mi South 20.7 mph 28.8 mph N/A   Clear
11:35 PM 71.6 °F - 59.0 °F 64% 29.86 in 10.0 mi South 18.4 mph 26.5 mph N/A   Clear
11:55 PM 71.2 °F - 59.0 °F 65% 29.85 in 10.0 mi SSE 19.6 mph 26.5 mph N/A   Clear